Time,TemperatureF,DewpointF,PressureIn,WindDirection,WindDirectionDegrees,WindSpeedMPH,WindSpeedGustMPH,Humidity,HourlyPrecipIn,Conditions,Clouds,dailyrainin,SoftwareType,DateUTC
2013-02-19 00:02:00,47.0,42.0,29.97,SSW,207,10.0,14.0,83,0.15,,,0.16,,2013-02-19 06:02:00,
2013-02-19 00:11:00,47.0,42.0,29.97,SSW,207,10.0,14.0,83,0.15,,,0.16,,2013-02-19 06:11:00,
2013-02-19 00:21:00,46.0,42.0,29.98,SW,223,7.0,13.0,86,0.24,,,0.29,,2013-02-19 06:21:00,
2013-02-19 00:32:00,46.0,42.0,29.98,SW,223,7.0,13.0,86,0.24,,,0.29,,2013-02-19 06:32:00,
2013-02-19 00:42:00,46.0,42.0,29.98,SW,223,7.0,13.0,86,0.24,,,0.29,,2013-02-19 06:42:00,
2013-02-19 00:52:00,46.0,42.0,29.98,SW,223,7.0,13.0,86,0.24,,,0.29,,2013-02-19 06:52:00,
2013-02-19 01:01:00,46.0,43.0,29.98,South,186,6.0,12.0,88,0.10,,,0.30,,2013-02-19 07:01:00,
2013-02-19 01:11:00,46.0,43.0,29.98,South,186,6.0,12.0,88,0.10,,,0.30,,2013-02-19 07:11:00,
2013-02-19 01:22:00,46.0,43.0,29.98,South,190,6.0,12.0,89,0.01,,,0.30,,2013-02-19 07:22:00,
2013-02-19 01:32:00,46.0,43.0,29.96,South,172,9.0,14.0,89,0.01,,,0.31,,2013-02-19 07:32:00,
2013-02-19 01:42:00,46.0,43.0,29.96,South,172,9.0,14.0,89,0.01,,,0.31,,2013-02-19 07:42:00,
2013-02-19 01:52:00,46.0,43.0,29.96,South,172,8.0,12.0,90,0.01,,,0.31,,2013-02-19 07:52:00,
2013-02-19 02:01:00,46.0,43.0,29.96,South,172,8.0,12.0,90,0.01,,,0.31,,2013-02-19 08:01:00,
2013-02-19 02:11:00,46.0,43.0,29.96,South,172,8.0,12.0,90,0.01,,,0.31,,2013-02-19 08:11:00,
2013-02-19 02:21:00,46.0,43.0,29.93,South,183,7.0,12.0,90,0.02,,,0.32,,2013-02-19 08:21:00,
2013-02-19 02:31:00,46.0,43.0,29.92,South,183,5.0,12.0,90,0.02,,,0.33,,2013-02-19 08:31:00,
2013-02-19 02:42:00,46.0,43.0,29.92,South,183,5.0,12.0,90,0.02,,,0.33,,2013-02-19 08:42:00,
2013-02-19 02:52:00,46.0,44.0,29.92,South,186,10.0,14.0,91,0.02,,,0.33,,2013-02-19 08:52:00,
2013-02-19 03:01:00,47.0,44.0,29.93,SSW,205,9.0,13.0,90,0.01,,,0.33,,2013-02-19 09:01:00,
2013-02-19 03:11:00,47.0,44.0,29.93,SSW,205,9.0,13.0,90,0.01,,,0.33,,2013-02-19 09:11:00,
2013-02-19 03:21:00,47.0,44.0,29.93,SSW,208,6.0,9.0,90,0.01,,,0.33,,2013-02-19 09:21:00,
2013-02-19 03:32:00,47.0,44.0,29.93,SW,216,6.0,10.0,90,0.00,,,0.33,,2013-02-19 09:32:00,
2013-02-19 03:42:00,47.0,44.0,29.93,SW,216,6.0,10.0,90,0.00,,,0.33,,2013-02-19 09:42:00,
2013-02-19 03:53:00,47.0,44.0,29.93,SW,216,6.0,10.0,90,0.00,,,0.33,,2013-02-19 09:53:00,
2013-02-19 04:01:00,48.0,45.0,29.93,SW,223,5.0,7.0,90,0.00,,,0.33,,2013-02-19 10:01:00,
2013-02-19 04:11:00,48.0,45.0,29.93,SW,223,5.0,7.0,90,0.00,,,0.33,,2013-02-19 10:11:00,
2013-02-19 04:22:00,48.0,45.0,29.93,SSW,206,5.0,9.0,90,0.00,,,0.33,,2013-02-19 10:22:00,
2013-02-19 04:32:00,48.0,45.0,29.94,SW,234,5.0,12.0,90,0.00,,,0.33,,2013-02-19 10:32:00,
2013-02-19 04:41:00,48.0,45.0,29.94,SW,234,5.0,12.0,90,0.00,,,0.33,,2013-02-19 10:41:00,
2013-02-19 04:52:00,48.0,45.0,29.95,WSW,238,3.0,7.0,91,0.00,,,0.33,,2013-02-19 10:52:00,
2013-02-19 05:01:00,48.0,45.0,29.95,WSW,238,3.0,7.0,91,0.00,,,0.33,,2013-02-19 11:01:00,
2013-02-19 05:11:00,48.0,45.0,29.95,WSW,238,3.0,7.0,91,0.00,,,0.33,,2013-02-19 11:11:00,
2013-02-19 05:21:00,49.0,46.0,29.96,SW,233,3.0,6.0,91,0.00,,,0.33,,2013-02-19 11:21:00,
2013-02-19 05:32:00,49.0,46.0,29.97,WNW,293,5.0,14.0,91,0.00,,,0.33,,2013-02-19 11:32:00,
2013-02-19 05:42:00,49.0,46.0,29.97,WNW,293,5.0,14.0,91,0.00,,,0.33,,2013-02-19 11:42:00,
2013-02-19 05:52:00,48.0,45.0,29.98,NW,323,2.0,9.0,91,0.00,,,0.33,,2013-02-19 11:52:00,
2013-02-19 06:01:00,46.0,43.0,29.99,WNW,300,5.0,16.0,90,0.00,,,0.33,,2013-02-19 12:01:00,
2013-02-19 06:12:00,46.0,43.0,29.99,WNW,300,5.0,16.0,90,0.00,,,0.33,,2013-02-19 12:12:00,
2013-02-19 06:22:00,44.0,41.0,30.01,West,265,1.0,13.0,88,0.00,,,0.33,,2013-02-19 12:22:00,
2013-02-19 06:32:00,44.0,40.0,30.02,WNW,293,3.0,14.0,87,0.00,,,0.33,,2013-02-19 12:32:00,
2013-02-19 06:42:00,44.0,40.0,30.02,WNW,293,3.0,14.0,87,0.00,,,0.33,,2013-02-19 12:42:00,
2013-02-19 06:52:00,44.0,40.0,30.03,WSW,252,2.0,8.0,85,0.00,,,0.33,,2013-02-19 12:52:00,
2013-02-19 07:02:00,44.0,40.0,30.03,WSW,252,2.0,8.0,85,0.00,,,0.33,,2013-02-19 13:02:00,
2013-02-19 07:11:00,44.0,40.0,30.03,WSW,252,2.0,8.0,85,0.00,,,0.33,,2013-02-19 13:11:00,
2013-02-19 07:22:00,43.0,38.0,30.05,West,268,3.0,10.0,83,0.00,,,0.33,,2013-02-19 13:22:00,
2013-02-19 07:32:00,42.0,37.0,30.06,West,267,3.0,10.0,82,0.00,,,0.33,,2013-02-19 13:32:00,
2013-02-19 07:42:00,42.0,37.0,30.06,West,267,3.0,10.0,82,0.00,,,0.33,,2013-02-19 13:42:00,
2013-02-19 07:52:00,42.0,36.0,30.07,WNW,286,2.0,7.0,79,0.00,,,0.33,,2013-02-19 13:52:00,
2013-02-19 08:01:00,42.0,36.0,30.07,WNW,286,2.0,7.0,79,0.00,,,0.33,,2013-02-19 14:01:00,
2013-02-19 08:11:00,42.0,36.0,30.07,WNW,286,2.0,7.0,79,0.00,,,0.33,,2013-02-19 14:11:00,
2013-02-19 08:21:00,41.0,34.0,30.09,NW,306,2.0,12.0,76,0.00,,,0.33,,2013-02-19 14:21:00,
2013-02-19 08:32:00,42.0,35.0,30.09,WNW,295,1.0,13.0,75,0.00,,,0.33,,2013-02-19 14:32:00,
2013-02-19 08:42:00,42.0,35.0,30.09,WNW,295,1.0,13.0,75,0.00,,,0.33,,2013-02-19 14:42:00,
2013-02-19 08:52:00,43.0,35.0,30.10,West,265,2.0,10.0,74,0.00,,,0.33,,2013-02-19 14:52:00,
2013-02-19 09:01:00,43.0,35.0,30.10,NW,311,3.0,10.0,74,0.00,,,0.33,,2013-02-19 15:01:00,
2013-02-19 09:11:00,43.0,35.0,30.10,NW,311,3.0,10.0,74,0.00,,,0.33,,2013-02-19 15:11:00,
2013-02-19 09:21:00,43.0,35.0,30.10,West,268,5.0,12.0,74,0.00,,,0.33,,2013-02-19 15:21:00,
2013-02-19 09:31:00,43.0,34.0,30.11,NW,306,3.0,12.0,71,0.00,,,0.33,,2013-02-19 15:31:00,
2013-02-19 09:42:00,43.0,34.0,30.11,NW,306,3.0,12.0,71,0.00,,,0.33,,2013-02-19 15:42:00,
2013-02-19 09:52:00,44.0,33.0,30.12,West,272,5.0,13.0,66,0.00,,,0.33,,2013-02-19 15:52:00,
2013-02-19 10:01:00,44.0,33.0,30.13,West,269,3.0,9.0,66,0.00,,,0.33,,2013-02-19 16:01:00,
2013-02-19 10:11:00,44.0,33.0,30.13,West,269,3.0,9.0,66,0.00,,,0.33,,2013-02-19 16:11:00,
2013-02-19 10:21:00,45.0,32.0,30.13,WNW,298,2.0,9.0,60,0.00,,,0.33,,2013-02-19 16:21:00,
2013-02-19 10:32:00,45.0,32.0,30.14,NNW,343,2.0,6.0,59,0.00,,,0.33,,2013-02-19 16:32:00,
2013-02-19 10:41:00,45.0,32.0,30.14,NNW,343,2.0,6.0,59,0.00,,,0.33,,2013-02-19 16:41:00,
2013-02-19 10:52:00,45.0,30.0,30.14,NW,308,3.0,10.0,55,0.00,,,0.33,,2013-02-19 16:52:00,
2013-02-19 11:01:00,46.0,28.0,30.14,West,272,8.0,14.0,50,0.00,,,0.33,,2013-02-19 17:01:00,
2013-02-19 11:11:00,46.0,28.0,30.14,West,272,8.0,14.0,50,0.00,,,0.33,,2013-02-19 17:11:00,
2013-02-19 11:21:00,46.0,30.0,30.14,WNW,283,3.0,9.0,54,0.00,,,0.33,,2013-02-19 17:21:00,
2013-02-19 11:32:00,47.0,30.0,30.14,NNW,341,3.0,13.0,52,0.00,,,0.33,,2013-02-19 17:32:00,
2013-02-19 11:41:00,47.0,30.0,30.14,NNW,341,3.0,13.0,52,0.00,,,0.33,,2013-02-19 17:41:00,
2013-02-19 11:52:00,47.0,30.0,30.14,WNW,292,3.0,10.0,52,0.00,,,0.33,,2013-02-19 17:52:00,
2013-02-19 12:01:00,47.0,30.0,30.14,WNW,292,3.0,10.0,52,0.00,,,0.33,,2013-02-19 18:01:00,
2013-02-19 12:11:00,47.0,30.0,30.14,WNW,292,3.0,10.0,52,0.00,,,0.33,,2013-02-19 18:11:00,
2013-02-19 12:21:00,48.0,28.0,30.13,WNW,296,3.0,12.0,45,0.00,,,0.33,,2013-02-19 18:21:00,
2013-02-19 12:32:00,48.0,27.0,30.13,West,263,8.0,14.0,43,0.00,,,0.33,,2013-02-19 18:32:00,
2013-02-19 12:42:00,48.0,25.0,30.13,NW,314,6.0,12.0,40,0.00,,,0.33,,2013-02-19 18:42:00,
2013-02-19 12:52:00,48.0,25.0,30.13,NW,314,6.0,12.0,40,0.00,,,0.33,,2013-02-19 18:52:00,
2013-02-19 13:01:00,49.0,26.0,30.13,WNW,303,5.0,16.0,41,0.00,,,0.33,,2013-02-19 19:01:00,
2013-02-19 13:11:00,49.0,26.0,30.13,WNW,303,5.0,16.0,41,0.00,,,0.33,,2013-02-19 19:11:00,
2013-02-19 13:21:00,49.0,26.0,30.12,WSW,255,7.0,17.0,41,0.00,,,0.33,,2013-02-19 19:21:00,
2013-02-19 13:31:00,49.0,25.0,30.12,WNW,290,6.0,12.0,39,0.00,,,0.33,,2013-02-19 19:31:00,
2013-02-19 13:41:00,49.0,25.0,30.12,WNW,290,6.0,12.0,39,0.00,,,0.33,,2013-02-19 19:41:00,
2013-02-19 13:51:00,49.0,23.0,30.12,West,273,6.0,14.0,36,0.00,,,0.33,,2013-02-19 19:51:00,
2013-02-19 14:01:00,49.0,24.0,30.12,NNW,342,6.0,18.0,37,0.00,,,0.33,,2013-02-19 20:01:00,
2013-02-19 14:12:00,49.0,24.0,30.12,NNW,342,6.0,18.0,37,0.00,,,0.33,,2013-02-19 20:12:00,
2013-02-19 14:21:00,49.0,21.0,30.13,West,281,10.0,20.0,33,0.00,,,0.33,,2013-02-19 20:21:00,
2013-02-19 14:32:00,49.0,21.0,30.13,West,273,7.0,16.0,33,0.00,,,0.33,,2013-02-19 20:32:00,
2013-02-19 14:42:00,49.0,21.0,30.13,West,273,7.0,16.0,33,0.00,,,0.33,,2013-02-19 20:42:00,
2013-02-19 14:52:00,49.0,20.0,30.13,West,269,7.0,14.0,32,0.00,,,0.33,,2013-02-19 20:52:00,
2013-02-19 15:02:00,49.0,19.0,30.13,WSW,258,3.0,12.0,30,0.00,,,0.33,,2013-02-19 21:02:00,
2013-02-19 15:11:00,49.0,19.0,30.13,WSW,258,3.0,12.0,30,0.00,,,0.33,,2013-02-19 21:11:00,
2013-02-19 15:21:00,49.0,19.0,30.13,West,280,5.0,13.0,30,0.00,,,0.33,,2013-02-19 21:21:00,
2013-02-19 15:31:00,49.0,19.0,30.13,West,280,5.0,13.0,30,0.00,,,0.33,,2013-02-19 21:31:00,
2013-02-19 15:42:00,49.0,19.0,30.13,West,280,5.0,13.0,30,0.00,,,0.33,,2013-02-19 21:42:00,
2013-02-19 15:52:00,49.0,16.0,30.14,West,277,5.0,12.0,27,0.00,,,0.33,,2013-02-19 21:52:00,
2013-02-19 16:02:00,49.0,16.0,30.14,West,274,7.0,15.0,27,0.00,,,0.33,,2013-02-19 22:02:00,
2013-02-19 16:11:00,49.0,16.0,30.14,West,274,7.0,15.0,27,0.00,,,0.33,,2013-02-19 22:11:00,
2013-02-19 16:21:00,49.0,17.0,30.15,WSW,257,7.0,17.0,28,0.00,,,0.33,,2013-02-19 22:21:00,
2013-02-19 16:32:00,48.0,16.0,30.15,West,262,6.0,16.0,27,0.00,,,0.33,,2013-02-19 22:32:00,
2013-02-19 16:41:00,48.0,16.0,30.15,West,262,6.0,16.0,27,0.00,,,0.33,,2013-02-19 22:41:00,
2013-02-19 16:52:00,48.0,16.0,30.16,NW,308,5.0,14.0,28,0.00,,,0.33,,2013-02-19 22:52:00,
2013-02-19 17:01:00,48.0,16.0,30.16,West,271,2.0,8.0,28,0.00,,,0.33,,2013-02-19 23:01:00,
2013-02-19 17:11:00,48.0,16.0,30.16,West,271,2.0,8.0,28,0.00,,,0.33,,2013-02-19 23:11:00,
2013-02-19 17:21:00,48.0,18.0,30.16,WNW,282,2.0,12.0,30,0.00,,,0.33,,2013-02-19 23:21:00,
2013-02-19 17:32:00,47.0,16.0,30.16,WSW,257,1.0,7.0,28,0.00,,,0.33,,2013-02-19 23:32:00,
2013-02-19 17:41:00,47.0,16.0,30.16,WSW,257,1.0,7.0,28,0.00,,,0.33,,2013-02-19 23:41:00,
2013-02-19 17:52:00,47.0,16.0,30.16,West,271,1.0,12.0,29,0.00,,,0.33,,2013-02-19 23:52:00,
2013-02-19 18:01:00,45.0,15.0,30.16,WNW,282,1.0,7.0,30,0.00,,,0.33,,2013-02-20 00:01:00,
2013-02-19 18:11:00,45.0,15.0,30.16,WNW,282,1.0,7.0,30,0.00,,,0.33,,2013-02-20 00:11:00,
2013-02-19 18:21:00,44.0,15.0,30.17,NNW,339,1.0,7.0,31,0.00,,,0.33,,2013-02-20 00:21:00,
2013-02-19 18:32:00,44.0,16.0,30.17,West,278,2.0,5.0,32,0.00,,,0.33,,2013-02-20 00:32:00,
2013-02-19 18:41:00,44.0,16.0,30.17,West,278,2.0,5.0,32,0.00,,,0.33,,2013-02-20 00:41:00,
2013-02-19 18:52:00,43.0,16.0,30.17,West,271,1.0,3.0,33,0.00,,,0.33,,2013-02-20 00:52:00,
2013-02-19 19:02:00,43.0,17.0,30.18,West,274,1.0,3.0,34,0.00,,,0.33,,2013-02-20 01:02:00,
2013-02-19 19:11:00,43.0,17.0,30.18,West,274,1.0,3.0,34,0.00,,,0.33,,2013-02-20 01:11:00,
2013-02-19 19:21:00,42.0,16.0,30.18,WNW,300,0.0,3.0,35,0.00,,,0.33,,2013-02-20 01:21:00,
2013-02-19 19:32:00,42.0,17.0,30.18,West,275,1.0,3.0,36,0.00,,,0.33,,2013-02-20 01:32:00,
2013-02-19 19:42:00,42.0,17.0,30.18,West,275,1.0,3.0,36,0.00,,,0.33,,2013-02-20 01:42:00,
2013-02-19 19:52:00,41.0,17.0,30.18,WNW,282,1.0,3.0,38,0.00,,,0.33,,2013-02-20 01:52:00,
2013-02-19 20:01:00,41.0,18.0,30.18,NW,321,0.0,2.0,39,0.00,,,0.33,,2013-02-20 02:01:00,
2013-02-19 20:11:00,41.0,18.0,30.18,NW,321,0.0,2.0,39,0.00,,,0.33,,2013-02-20 02:11:00,
2013-02-19 20:21:00,40.0,18.0,30.19,North,0,1.0,3.0,41,0.00,,,0.33,,2013-02-20 02:21:00,
2013-02-19 20:31:00,40.0,19.0,30.19,North,351,0.0,3.0,43,0.00,,,0.33,,2013-02-20 02:31:00,
2013-02-19 20:42:00,40.0,19.0,30.19,North,351,0.0,3.0,43,0.00,,,0.33,,2013-02-20 02:42:00,
2013-02-19 20:52:00,39.0,20.0,30.20,North,351,0.0,3.0,46,0.00,,,0.33,,2013-02-20 02:52:00,
2013-02-19 21:01:00,39.0,20.0,30.20,North,351,0.0,3.0,46,0.00,,,0.33,,2013-02-20 03:01:00,
2013-02-19 21:12:00,39.0,20.0,30.20,North,351,0.0,3.0,46,0.00,,,0.33,,2013-02-20 03:12:00,
2013-02-19 21:22:00,38.0,20.0,30.23,NNW,334,0.0,3.0,48,0.00,,,0.33,,2013-02-20 03:22:00,
2013-02-19 21:32:00,38.0,21.0,30.23,NNW,344,0.0,3.0,49,0.00,,,0.33,,2013-02-20 03:32:00,
2013-02-19 21:42:00,38.0,21.0,30.23,NNW,344,0.0,3.0,49,0.00,,,0.33,,2013-02-20 03:42:00,
2013-02-19 21:52:00,38.0,21.0,30.22,WSW,256,0.0,1.0,50,0.00,,,0.33,,2013-02-20 03:52:00,
2013-02-19 22:01:00,38.0,21.0,30.22,WSW,256,0.0,1.0,50,0.00,,,0.33,,2013-02-20 04:01:00,
2013-02-19 22:11:00,38.0,21.0,30.22,WSW,256,0.0,1.0,50,0.00,,,0.33,,2013-02-20 04:11:00,
2013-02-19 22:21:00,36.0,19.0,30.22,NW,305,0.0,0.0,50,0.00,,,0.33,,2013-02-20 04:21:00,
2013-02-19 22:31:00,36.0,19.0,30.22,NW,305,0.0,0.0,50,0.00,,,0.32,,2013-02-20 04:31:00,
2013-02-19 22:42:00,36.0,19.0,30.22,NW,305,0.0,0.0,50,0.00,,,0.32,,2013-02-20 04:42:00,
2013-02-19 22:52:00,36.0,20.0,30.22,NW,305,0.0,0.0,52,0.00,,,0.32,,2013-02-20 04:52:00,
2013-02-19 23:02:00,36.0,20.0,30.22,NW,305,0.0,0.0,52,0.00,,,0.32,,2013-02-20 05:02:00,
2013-02-19 23:12:00,36.0,20.0,30.22,NW,305,0.0,0.0,52,0.00,,,0.32,,2013-02-20 05:12:00,
2013-02-19 23:22:00,35.0,20.0,30.23,NW,305,0.0,0.0,53,0.00,,,0.28,,2013-02-20 05:22:00,
2013-02-19 23:32:00,35.0,20.0,30.23,NW,305,0.0,0.0,53,0.00,,,0.28,,2013-02-20 05:32:00,
2013-02-19 23:43:00,35.0,20.0,30.23,NW,305,0.0,0.0,53,0.00,,,0.28,,2013-02-20 05:43:00,
2013-02-19 23:52:00,33.0,19.0,30.23,NW,304,0.0,0.0,56,0.00,,,0.18,,2013-02-20 05:52:00,